Location: Go�ngahuizen
(53.0821°N, 5.8849°E)
Time: 06:45:45
(UTC+00:00)

FALCON 9 DEB - Pass Details

Date: 09 April 2020
Orbit: 428 x 442 km, 53.0° (Epoch: 02 June)

Event Time Altitude Azimuth Distance (km) Brightness Sun altitude
Rises 19:27:03 0° 221° (SW) 2,426 7.1 -9.3°
Reaches altitude 10° 19:29:20 10° 210° (SSW) 1,558 6.0 -9.6°
Maximum altitude 19:32:25 29° 148° (SSE) 835 4.1 -10.0°
Enters shadow 19:35:01 13° 91° (E) 1,393 5.1 -10.4°
